WXBOT messages


fromtotime message
WXBOT KR4LQA 05/06 06:21:03z Send another 2 Miles ENE Kershaw SC. Overnight,Partly Cloudy Low 59
KR4LQA WXBOT 05/06 06:20:56z Reply 29067{5444
RGSTRY WXBOT 05/06 04:37:45z Reply ?{2777
WXBOT N7RCC-7 05/06 04:34:42z Send another Fort Huachuca AZ. Tonight,Clear Low 43
WXBOT KQ4NNJ-9 05/06 03:37:58z Send another Scottsville KY. Tonight,Showers 100% Low 56
KQ4NNJ-9 WXBOT 05/06 03:37:51z Reply 42164{57
KQ4NNJ-9 WXBOT 05/06 03:37:51z Reply 4216457
RGSTRY WXBOT 05/06 03:37:45z Reply ?{2702
WXBOT KH6NS-5 05/06 03:10:26z Send another 3 Miles SW Union City CA. Tonight,Increasing Clouds Low 54
WXBOT W4SNY-9 05/06 03:07:59z Send another Hendersonville TN. Tonight,T-storms 90% Low 57
KH6NS-5 WXBOT 05/06 03:06:11z Reply 94555{V76
W4SNY-9 WXBOT 05/06 03:04:51z Reply Forecast 37075{4
W4SNY-9 WXBOT 05/06 03:03:44z Reply Forecast 370754
WXBOT KB9MTD-7 05/06 02:57:10z Send another Eldena IL. Tonight,Decreasing Clouds Low 38
RGSTRY WXBOT 05/06 02:41:48z Reply ?{2627
WXBOT KF0QIL-9 05/06 02:39:12z Send another then Chance Showers 60% Low 44
WXBOT KF0QIL-9 05/06 02:39:07z Send another Holts Summit MO. Hazardous Weather Outlook, Tonight,Showers Likely
WXBOT KC1RAY-1 05/06 02:37:23z Send another Attleboro MA. Tonight,Mostly Cloudy Low 56
KC1RAY-1 WXBOT 05/06 02:37:18z Reply Attleboro,MA{083
WXBOT KC1RAY-1 05/06 02:28:38z Send another Rehoboth MA. Tonight,Mostly Cloudy Low 55
KC1RAY-1 WXBOT 05/06 02:28:30z Reply Rehoboth,MA{082
WXBOT KJ5FAD-2 05/06 02:18:34z Send another Cordell OK. Tonight,Mostly Cloudy Low 45
KH6NS-5 WXBOT 05/06 02:17:46z Reply Help{KCK
WXBOT JE4LBO-9 05/06 02:15:44z Send another Agawam MA. Tonight,Mostly Cloudy Low 58
JE4LBO-9 WXBOT 05/06 02:15:36z Reply 01001{77
WXBOT KH6NS-5 05/06 02:08:30z Send another Kilauea HI. This Afternoon,Isolated Showers 20% High 80
KH6NS-5 WXBOT 05/06 02:08:22z Reply 96754{9TP
WXBOT KF8CQP-7 05/06 02:01:28z Send another Farmington MI. Tonight,Slight Chance Showers 20% Low 43
WXBOT KD6AGW-7 05/06 01:58:55z Send another 2 Miles SE Chico CA. Tonight,Mostly Clear Low 55
WXBOT KF8BED-1 05/06 01:54:16z Send another ,Rain 100% Low 47
WXBOT KF8BED-1 05/06 01:54:11z Send another 2 Miles WSW Newburgh Heights OH. Hazardous Weather Outlook, Tonight
KF8BED-1 WXBOT 05/06 01:54:05z Reply 44109{4D1A5
WXBOT KR4CCG 05/06 01:48:51z Send another Longwood FL. Tonight,Partly Cloudy Low 67
KR4CCG WXBOT 05/06 01:48:44z Reply 32750{DE3EA
WXBOT K1MRE-10 05/06 01:44:46z Send another Stevenson CT. Tonight,Partly Cloudy Low 57
K1MRE-10 WXBOT 05/06 01:44:34z Reply 06468{001
RGSTRY WXBOT 05/06 01:37:45z Reply ?{2552
WXBOT W6ZU 05/06 00:53:49z Send another 4 Miles NNE San Juan Capistrano CA. Tonight,Mostly Cloudy Low 50
WXBOT W6ZU 05/06 00:53:39z Send another w 61
WXBOT W6ZU 05/06 00:53:34z Send another Freehold NJ. Tonight,Partly Cloudy and Breezy then Partly Cloudy Lo
W6ZU WXBOT 05/06 00:49:31z Reply 92694{2413
W6ZU WXBOT 05/06 00:49:17z Reply 07728{2412
WXBOT K4PFE 05/06 00:48:38z Send another Currently at Culpeper Regional Airport, Temp:77 wind:180@6,fair
K4PFE WXBOT 05/06 00:48:33z Reply now{1850
K4PFE WXBOT 05/06 00:45:28z Reply now{1849
RGSTRY WXBOT 05/06 00:41:53z Reply ?{2477
WB4WNO WXBOT 05/06 00:34:40z Reply 32219{8592
RGSTRY WXBOT 05/05 23:37:45z Reply ?{2402
WXBOT KD2OIE-12 05/05 23:31:35z Send another ast
WXBOT KD2OIE-12 05/05 23:31:30z Send another Currently at Lexington Blue Grass Airport, Temp:66 wind:180@7,overc
WXBOT KF0CBW-7 05/05 23:21:12z Send another 64
WXBOT KF0CBW-7 05/05 23:21:07z Send another Saint Cloud MN. Hazardous Weather Outlook, Friday,Mostly Sunny High
KF0CBW-7 WXBOT 05/05 23:21:00z Reply 56301 Friday {1
WXBOT W4PWT-7 05/05 23:04:20z Send another Camden NC. Wednesday,Partly Sunny High 81
W4PWT-7 WXBOT 05/05 23:00:07z Reply 27921 tomorrow {3
WXBOT KG6HPF-7 05/05 22:57:49z Send another 7 Miles E Davis-Monthan AFB AZ. Tonight,Decreasing Clouds Low 51
WXBOT W4PWT-7 05/05 22:57:37z Send another 4 Miles SE Deep Run NC. Wednesday,Partly Sunny High 83
W4PWT-7 WXBOT 05/05 22:57:29z Reply Tomorrow {2
KG6HPF-7 WXBOT 05/05 22:56:34z Reply tonight{51
RGSTRY WXBOT 05/05 22:37:45z Reply ?{2327
WXBOT WA1GOV-1 05/05 22:30:11z Send another ds Low 54
WXBOT WA1GOV-1 05/05 22:30:07z Send another East Taunton MA. Special Weather Statement, Tonight,Increasing Clou
WXBOT KF7R-7 05/05 21:52:53z Send another 6
WXBOT KF7R-7 05/05 21:52:48z Send another 4 Miles W Tonopah AZ. This Afternoon,Mostly Sunny and Breezy High 7
KF7R-7 WXBOT 05/05 21:52:41z Reply dm33{21
WXBOT KF7R-7 05/05 21:50:23z Send another h 76
WXBOT KF7R-7 05/05 21:50:18z Send another 3 Miles NW Tucson AZ. This Afternoon,Slight Chance T-storms 20% Hig
KF7R-7 WXBOT 05/05 21:50:11z Reply Tucson,AZ{20
WXBOT KF7R-7 05/05 21:43:47z Send another 2 Miles W Nogales AZ. This Afternoon,Sunny and Breezy High 71
KF0CBW wxbot 05/05 21:43:39z Reply tomorrow{1
KF7R-7 WXBOT 05/05 21:43:37z Reply mayaguez{19
WXBOT KF7R-7 05/05 21:42:52z Send another Currently at Nogales Post Office, Temp:68 wind:230@11,na
KF7R-7 WXBOT 05/05 21:42:44z Reply now{18
WXBOT KF7R-7 05/05 21:41:27z Send another 2 Miles W Nogales AZ. Tonight,Clear Low 42
KF7R-7 WXBOT 05/05 21:41:19z Reply TONIGHT{17
RGSTRY WXBOT 05/05 21:37:45z Reply ?{2252
WXBOT KQ4HZK-9 05/05 21:27:02z Send another High 70
WXBOT KQ4HZK-9 05/05 21:26:57z Send another Livermore KY. Hazardous Weather Outlook, This Afternoon,Showers 90%
KQ4HZK-9 WXBOT 05/05 21:26:48z Reply today{92
WXBOT K7TEJ-9 05/05 21:18:00z Send another FW7674 77,wind:232@15 g24,1011.0mbar,rh:25%,rain:none
WXBOT K7TEJ-9 05/05 20:39:49z Send another FW7674 75,wind:207@6 g6,1011.4mbar,rh:26%,rain:none
WXBOT W6JMP-7 05/05 20:38:25z Send another El Dorado Hills CA. This Afternoon,Mostly Sunny High 63
W6JMP-7 WXBOT 05/05 20:38:18z Reply 95762{1
RGSTRY WXBOT 05/05 20:37:45z Reply ?{2177
WXBOT K7TEJ-9 05/05 20:35:40z Send another FW7674 76,wind:239@13 g17,1011.1mbar,rh:26%,rain:none
WXBOT K4VBX 05/05 20:26:23z Send another d:190@13,a few clouds
WXBOT K4VBX 05/05 20:26:18z Send another Currently at Virginia Beach, Oceana, Naval Air Station, Temp:82 win
KM4ESU-5 WXBOT 05/05 20:20:49z Reply Today{G6W
KM4ESU-5 WXBOT 05/05 20:19:45z Reply Today{VYX
WXBOT KM4ESU-5 05/05 20:19:28z Send another 5 Miles W Owens Cross Roads AL. This Afternoon,Chance Showers 30% H
KM4ESU-5 WXBOT 05/05 20:19:19z Reply Today{432
RGSTRY WXBOT 05/05 19:37:45z Reply ?{2102
WXBOT K7TEJ-9 05/05 19:18:01z Send another FW7674 74,wind:260@15 g20,1011.9mbar,rh:32%,rain:none
WXBOT N1QQA-9 05/05 19:15:26z Send another Chance of precipitation is 30%.
WXBOT N1QQA-9 05/05 19:15:21z Send another with a southwest wind around 20 mph, with gusts as high as 35 mph.
WXBOT N1QQA-9 05/05 19:15:16z Send another understorms after 5pm. Mostly sunny, with a high near 81. Breezy,
WXBOT N1QQA-9 05/05 19:15:11z Send another 2 Miles SE Sanbornville NH. This Afternoon,Scattered showers and th
WXBOT KC1RAY-1 05/05 19:11:15z Send another on,Sunny High 82
WXBOT KC1RAY-1 05/05 19:11:10z Send another Boston, Logan International Airport MA. Wind Advisory, This Afterno
KC1RAY-1 WXBOT 05/05 19:11:03z Reply Boston,MA{079